Flag for Brazil Weather past 2 weeks in Curitiba, Paraná, Brazil

Now
46 °F

Fog.


Feels Like: 46 °F
Forecast: 50 / 75 °F
Wind: No wind

Location: Curitiba Aeroporto

Current Time: Aug 2, 2015 at 7:51:44 AM

Latest Report: Aug 2, 2015 at 7:00 AM


Visibility: 0 mi

Pressure: 30.15 "Hg (26.98 "Hg at 915m altitude)

Humidity: 100%

Dew point: 46 °F

Location of CuritibaLocation

Historic Weather in Curitiba — Graph

°F

Curitiba temperature yesterday

Maximum temperature yesterday: 77 °F (at 12:00 PM)
Minimum temperature yesterday: 50 °F (at 6:00 AM)
Average temperature yesterday: 63 °F

Past Weeks' High & Low Weather Summary

 TemperatureHumidityPressure
High77 °F (Jul 31, 2:00 PM)100% (Jul 18, 7:00 AM)30.36 "Hg (Jul 18, 7:00 AM)
Low41 °F (Jul 28, 7:00 AM)22% (Aug 1, 1:00 PM)29.98 "Hg (Jul 20, 10:00 PM)
Average58 °F79%30.20 "Hg
* Reported Jul 18 7:00 AM — Aug 2 7:00 AM, Curitiba, Weather by CustomWeather, © 2015

Note: Actual official high and low records may vary slightly from our data, if they occured in-between our weather recording intervals... More about our weather records

Advertising

Curitiba weather history for previous 24 hours

 ConditionsComfort  
Time TempWeatherWind HumidityBarometerVisibility
7:00 AM
Sun, Aug 2
46 °FFog.No wind100%N/A1 mi
6:00 AM48 °FFog.No wind100%N/A0 mi
5:00 AM48 °FFog.1 mph100%N/A1 mi
4:00 AM52 °FFog.1 mph94%N/A1 mi
3:00 AM54 °FFog.1 mph100%N/A1 mi
2:00 AM54 °FFog.3 mph94%N/A1 mi
1:00 AM54 °FFog.3 mph47%30.18 "Hg1 mi
12:00 AM55 °FPassing clouds.2 mph94%30.18 "Hg5 mi
11:00 PM
Sat, Aug 1
55 °FPassing clouds.3 mph94%30.18 "HgN/A
10:00 PM57 °FPassing clouds.3 mph94%30.18 "HgN/A
9:00 PM59 °FPassing clouds.7 mph94%30.18 "HgN/A
8:00 PM61 °FPassing clouds.3 mph94%30.18 "HgN/A
7:00 PM63 °FPassing clouds.5 mph88%30.18 "HgN/A
6:00 PM68 °FPassing clouds.6 mph64%30.15 "HgN/A
5:00 PM73 °FPassing clouds.7 mph38%30.15 "HgN/A
4:00 PM77 °FScattered clouds.10 mph24%30.15 "HgN/A
3:00 PM77 °FPartly sunny.8 mph30%30.15 "HgN/A
2:00 PM75 °FPartly sunny.6 mph25%30.18 "HgN/A
1:00 PM77 °FPassing clouds.3 mph22%30.21 "HgN/A
12:00 PM77 °FSunny.8 mph28%30.24 "Hg10 mi
11:00 AM72 °FSunny.3 mph47%30.27 "Hg10 mi
10:00 AM68 °FSunny.3 mph49%30.27 "Hg10 mi
9:00 AM63 °FSunny.2 mph73%30.27 "Hg10 mi
8:00 AM54 °FSunny.5 mph94%30.24 "Hg10 mi
7:00 AM52 °FPassing clouds.1 mph94%30.24 "Hg4 mi
Weather by CustomWeather, © 2015

See weather overviewHow to use our weather pages